ONEWEB-0158

Last updated on April 25, 2021, 12:02 a.m. UTC

1 48054U 21025N   21114.58336806 -.01083399  00000-0 -42178-1 0  9997
2 48054  87.4238 339.3219 0008095 150.2190 213.1112 15.28891111  1778
UTC
Height (km)
Latitude
Longitude
Inclination
Orbital Period
UTC large
Height (km)
Speed (km/s)
/
Latitude / Longitude
Inclination (degrees)
Orbital Period (minutes)
Azimuth
Elevation
Range (km)
Doppler Factor
iOS Compass Heading
iOS Angle

Next 30 passes for location: Hong Kong

Rise time Rise Azimuth (degrees) Set time Set Azimuth (degrees) Duration Max altitude (degrees)

No matching passes for this satellites